Location: Perryvale
(54.4667°N, 113.3833°W)
Time: 21:18:24
(UTC+00:00)

Transit 2A - Pass Details

Date: 26 May 2024
Orbit: 592 x 959 km, 66.7° (Epoch: 19 June)

Event Time Altitude Azimuth Distance (km) Brightness Sun altitude
Rises 09:18:15 0° 290° (WNW) 3,155 9.1 -10.8°
Reaches altitude 10° 09:21:01 10° 305° (NW) 2,300 8.6 -10.7°
Maximum altitude 09:25:13 23° 358° (N) 1,661 8.6 -10.4°
Drops below altitude 10° 09:29:45 10° 50° (NE) 2,499 9.9 -10.1°
Sets 09:32:53 0° 64° (ENE) 3,499 10.4 -9.9°
